User: anonymous   Login
Location: Coupvray
(48.8929°N, 2.7967°E)
Time: 21:34:54
(UTC+00:00)
Language:

Cosmos 540 Rocket - Orbit

View from above orbital plane
View from above orbital plane
View from above satellite
View from above satellite

Ground track
Ground track

The orbit data is extracted from the following two-line orbital elements,

1  6324U 72104B   20272.47175544 +.00000095 +00000-0 +35964-4 0  9994
2  6324 074.0781 043.2114 0009917 238.0109 122.0085 14.43501251508342
Epoch (UTC): 28 September 2020 11:19:19
Eccentricity: 0.0009917
inclination: 74.0781°
perigee height: 740 km
apogee height: 754 km
right ascension of ascending node: 43.2114°
argument of perigee: 238.0109°
revolutions per day: 14.43501251
mean anomaly at epoch: 122.0085°
orbit number at epoch: 50834

The dashed part of the orbit path shows where the satellite is in the earth's shadow,  

DLR